Weather History for San Nicolas Island, CA

Change the Weather History Date:

Thursday, January 3, 2013

  Actual Average Record
Temperature  
Mean Temperature 58 °F -  
Max Temperature 66 °F 59 °F 77 °F (2012)
Min Temperature 50 °F 49 °F 46 °F (2011)
Degree Days  
Heating Degree Days 7    
Growing Degree Days 8 (Base 50)    
Moisture  
Dew Point 41 °F    
Average Humidity 49    
Maximum Humidity 81    
Minimum Humidity 23    
Precipitation  
Precipitation 0.00 in - - ()
Sea Level Pressure  
Sea Level Pressure 30.10 in    
Wind  
Wind Speed 11 mph (NW)    
Max Wind Speed 14 mph    
Max Gust Speed -    
Visibility 9 miles    
Events      
Averages and records for this station are not official NWS values.
T = Trace of Precipitation, MM = Missing Value Source: NWS Daily Summary

Daily Weather History Graph

Daily Weather History Graph

Search for Another Location

Airport:

Trip Planner

Search our weather history database for the weather conditions in past years. The results will help you decide how hot, cold, wet, or windy it might be!

Date:

Astronomy

Jan. 03, 2013 Rise Set
Actual Time 7:01 AM PST 5:03 PM PST
Civil Twilight 6:34 AM PST 5:30 PM PST
Nautical Twilight 6:03 AM PST 6:01 PM PST
Astronomical Twilight 5:33 AM PST 6:31 PM PST
Moon 11:22 PM PST (1/3) 10:36 AM PST (1/3)
Length of Visible Light 10h 56m
Length of Day
10h 01m
Waning Gibbous, 64% of the Moon is Illuminated
Jan 3
Waning Gibbous
Jan 4
Last Quarter
Jan 11
New
Jan 18
First Quarter
Jan 26
Full

Hourly Weather History & Observations

Time (PST) Temp. Dew Point Humidity Pressure Visibility Wind Dir Wind Speed Gust Speed Precip Events Conditions
12:53 AM 63.0 °F 46.9 °F 56% 30.05 in 10.0 mi NW 12.7 mph - N/A   Clear
1:53 AM 62.1 °F 43.0 °F 50% 30.05 in 10.0 mi WNW 13.8 mph - N/A   Clear
2:53 AM 62.1 °F 46.9 °F 58% 30.06 in 10.0 mi WNW 13.8 mph - N/A   Clear
3:53 AM 62.1 °F 43.0 °F 50% 30.05 in 10.0 mi WNW 12.7 mph - N/A   Clear
4:53 AM 62.1 °F 42.1 °F 48% 30.04 in 10.0 mi WNW 11.5 mph - N/A   Clear
5:53 AM 64.0 °F 46.0 °F 52% 30.06 in 10.0 mi WNW 12.7 mph - N/A   Clear
6:53 AM 50.5 °F 45.0 °F 81% 30.07 in 7.0 mi NNW 11.5 mph - N/A   Partly Cloudy
7:53 AM 52.5 °F 46.0 °F 79% 30.09 in 7.0 mi North 10.4 mph - N/A   Partly Cloudy
8:53 AM 60.1 °F 39.9 °F 47% 30.11 in 7.0 mi NNE 8.1 mph - N/A   Partly Cloudy
9:53 AM 59.7 °F 37.0 °F 43% 30.13 in 7.0 mi North 8.1 mph - N/A   Partly Cloudy
10:53 AM 57.4 °F 37.9 °F 48% 30.12 in 7.0 mi North 8.1 mph - N/A   Partly Cloudy
11:53 AM 59.7 °F 34.0 °F 38% 30.11 in 7.0 mi NNE 6.9 mph - N/A   Partly Cloudy
12:53 PM 61.7 °F 35.1 °F 37% 30.09 in 7.0 mi Variable 4.6 mph - N/A   Partly Cloudy
1:53 PM 61.7 °F 23.0 °F 23% 30.09 in 7.0 mi NNE 3.5 mph - N/A   Partly Cloudy
2:53 PM 61.3 °F 37.0 °F 40% 30.10 in 7.0 mi NW 4.6 mph - N/A   Partly Cloudy
3:53 PM 61.3 °F 41.0 °F 47% 30.10 in 7.0 mi WNW 8.1 mph - N/A   Partly Cloudy
4:53 PM 66.9 °F 39.0 °F 36% 30.11 in 10.0 mi WNW 9.2 mph - N/A   Clear
5:53 PM 63.0 °F 32.0 °F 31% 30.12 in 10.0 mi NW 11.5 mph - N/A   Clear
6:53 PM 63.0 °F 45.0 °F 52% 30.14 in 10.0 mi WNW 12.7 mph - N/A   Clear
7:53 PM 63.0 °F 44.1 °F 50% 30.15 in 10.0 mi WNW 12.7 mph - N/A   Clear
8:53 PM 63.0 °F 46.0 °F 54% 30.15 in 10.0 mi WNW 12.7 mph - N/A   Clear
9:53 PM 61.0 °F 43.0 °F 52% 30.16 in 10.0 mi WNW 10.4 mph - N/A   Clear
10:53 PM 61.0 °F 43.0 °F 52% 30.16 in 10.0 mi WNW 12.7 mph - N/A   Clear
11:53 PM 62.1 °F 46.0 °F 56% 30.17 in 10.0 mi West 12.7 mph - N/A   Clear